Regional Weather Roundup
Issued by NWS Albany, NY

Home | Current Version | Previous Version | Graphics & Text | Print | Product List | Glossary Off
Versions: 1 2 3 4 5 6 7 8 9 10 11 12 13 14 15 16 17 18 19 20 21 22 23 24 25 26 27 28 29 30 31 32 33 34 35 36 37 38 39 40 41 42 43 44 45 46 47 48 49 50

000
ASUS41 KALY 270210
RWRALY

NEW YORK STATE HOURLY WEATHER ROUNDUP
NATIONAL WEATHER SERVICE ALBANY NY
1000 PM EDT MON JUN 26 2017

NOTE: "FAIR" INDICATES FEW OR NO CLOUDS BELOW 12,000 FEET WITH NO
SIGNIFICANT WEATHER AND/OR NO OBSTRUCTIONS TO VISIBILITY.

NYZ032-033-038>043-046>054-057>066-NYZ062>081-082-084-270300-
EAST


CITY           SKY/WX    TMP DP  RH WIND       PRES   REMARKS
ALBANY         TSTM      61  57  87 S7        30.01R FOG
GLENS FALLS    MOCLDY    56  54  93 CALM      29.98R
POUGHKEEPSIE   CLEAR     64  51  62 CALM      29.95S
NEWBURGH       CLEAR     68  52  56 SW5       29.99R
MONTGOMERY     CLEAR     61  52  72 SW5       29.97R
WHITE PLAINS   CLEAR     65  57  75 S5        29.98S
ISLIP          CLEAR     70  63  78 S9        29.99R
NEW YORK CITY  CLEAR     72  61  68 S8        29.97R
CENTRAL PARK   CLEAR     74  46  36 CALM      30.00R
$$

NYZ005>009-017-018-044>046-055-056-270300-
CENTRAL


CITY           SKY/WX    TMP DP  RH WIND       PRES   REMARKS
FULTON         PTCLDY    54  52  93 S3        29.96S
SYRACUSE       MOCLDY    59  54  83 N3        29.97R
ROME           CLOUDY    58  55  90 E7        29.98S
ELMIRA         CLOUDY    57  56  96 CALM      30.01R
BINGHAMTON     LGT RAIN  53  52  96 S5        30.02R
MONTICELLO     CLEAR     63  48  59 S3        30.01R
$$

NYZ026>034-041>043-087-270300-
NORTH


CITY           SKY/WX    TMP DP  RH WIND       PRES   REMARKS
WATERTOWN      CLOUDY    53  53 100 SE6       29.95S
FORT DRUM      NOT AVBL
OGDENSBURG     LGT RAIN  56  53  92 S6        29.94F
MASSENA        CLOUDY    59  57  93 CALM      29.94R
SARANAC LAKE   PTCLDY    49  49 100 CALM      29.96S FOG
PLATTSBURGH    PTCLDY    60  54  80 CALM      29.93S
$$

NYZ001>004-010>016-019>021-085-270300-
WEST


CITY           SKY/WX    TMP DP  RH WIND       PRES   REMARKS
NIAGARA FALLS  PTCLDY    57  50  77 W6        29.95S
BUFFALO        PTCLDY    59  45  59 SW3       29.96S
DUNKIRK        PTCLDY    58  50  75 S7        29.97S
JAMESTOWN      CLEAR     54  46  76 S6        30.00S
WELLSVILLE     CLEAR     55  50  83 SW8       30.03R
ROCHESTER      MOCLDY    60  52  74 VRB3      29.98R
PENN YAN       MOCLDY    57  50  77 S6        30.00R
$$

             KEY
       WCI = WIND CHILL INDEX
       VSB = VISIBILITY
       HX  = HEAT INDEX
$$



USA.gov is the U.S. government's official web portal to all federal, state and local government web resources and services.